| time (UTC) | temp C | wind direction | speed KPH | gust KPH | rain 1hr cm | rain 24hr cm | rain mn cm | humidity % | barometer mb |
| 20260508132948 | 15 | 107 | 1.6 | 1.6 | 0.00 | 0.00 | 0.00 | 54 | 1018.9 |
| 20260508132446 | 15 | 154 | 0.0 | 0.0 | 0.00 | 0.00 | 0.00 | 61 | 1018.8 |
| 20260508131943 | 15 | 320 | 6.4 | 9.7 | 0.00 | 0.00 | 0.00 | 61 | 1018.9 |
| 20260508131438 | 15 | 120 | 1.6 | 1.6 | 0.00 | 0.00 | 0.00 | 62 | 1019.0 |
| 20260508130935 | 15 | 192 | 3.2 | 4.8 | 0.00 | 0.00 | 0.00 | 63 | 1019.0 |
| 20260508130432 | 14 | 36 | 3.2 | 4.8 | 0.00 | 0.00 | 0.00 | 66 | 1019.0 |
| 20260508125927 | 14 | 93 | 1.6 | 1.6 | 0.00 | 0.00 | 0.00 | 67 | 1019.0 |
| 20260508125424 | 13 | 109 | 3.2 | 3.2 | 0.00 | 0.00 | 0.00 | 69 | 1018.8 |
| 20260508124922 | 13 | 109 | 3.2 | 3.2 | 0.00 | 0.00 | 0.00 | 69 | 1018.7 |
| 20260508124420 | 13 | 109 | 3.2 | 3.2 | 0.00 | 0.00 | 0.00 | 69 | 1018.9 |
| 20260508123917 | 13 | 109 | 3.2 | 3.2 | 0.00 | 0.00 | 0.00 | 69 | 1018.8 |
| 20260508123416 | 13 | 14 | 1.6 | 1.6 | 0.00 | 0.00 | 0.00 | 72 | 1018.6 |
| 20260508122911 | 13 | 3 | 6.4 | 6.4 | 0.00 | 0.00 | 0.00 | 74 | 1018.7 |
| 20260508122409 | 12 | 51 | 3.2 | 3.2 | 0.00 | 0.00 | 0.00 | 75 | 1018.6 |
| 20260508121906 | 10 | 92 | 0.0 | 1.6 | 0.00 | 0.00 | 0.00 | 99 | 1018.5 |
| 20260508121404 | 10 | 92 | 0.0 | 1.6 | 0.00 | 0.00 | 0.00 | 99 | 1018.4 |
| 20260508120901 | 10 | 92 | 0.0 | 1.6 | 0.00 | 0.00 | 0.00 | 99 | 1018.3 |
| 20260508120359 | 10 | 224 | 1.6 | 1.6 | 0.00 | 0.00 | 0.00 | 99 | 1018.2 |
| 20260508115856 | 9 | 100 | 1.6 | 3.2 | 0.00 | 0.00 | 0.00 | 99 | 1018.1 |
| 20260508115354 | 8 | 99 | 0.0 | 3.2 | 0.00 | 0.00 | 0.00 | 99 | 1018.1 |
| 20260508114850 | 8 | 184 | 0.0 | 1.6 | 0.00 | 0.00 | 0.00 | 99 | 1017.9 |
| 20260508114347 | 8 | 144 | 0.0 | 0.0 | 0.00 | 0.00 | 0.00 | 99 | 1018.0 |
| 20260508113844 | 7 | 221 | 0.0 | 1.6 | 0.00 | 0.00 | 0.00 | 99 | 1017.7 |
| 20260508113342 | 7 | 155 | 0.0 | 1.6 | 0.00 | 0.00 | 0.00 | 99 | 1017.9 |
| 20260508112838 | 7 | 270 | 0.0 | 1.6 | 0.00 | 0.00 | 0.00 | 99 | 1017.8 |
| 20260508112336 | 7 | 339 | 1.6 | 3.2 | 0.00 | 0.00 | 0.00 | 99 | 1017.7 |
| 20260508111831 | 7 | 162 | 0.0 | 0.0 | 0.00 | 0.00 | 0.00 | 99 | 1017.5 |
| 20260508111323 | 7 | 151 | 0.0 | 0.0 | 0.00 | 0.00 | 0.00 | 99 | 1017.4 |
| 20260508110820 | 6 | 153 | 0.0 | 0.0 | 0.00 | 0.00 | 0.00 | 99 | 1017.6 |
| 20260508110318 | 6 | 149 | 0.0 | 0.0 | 0.00 | 0.00 | 0.00 | 99 | 1017.5 |
| 20260508105817 | 6 | 155 | 0.0 | 0.0 | 0.00 | 0.00 | 0.00 | 99 | 1017.3 |
| 20260508105314 | 6 | 154 | 0.0 | 0.0 | 0.00 | 0.00 | 0.00 | 99 | 1017.1 |
| 20260508104811 | 6 | 153 | 0.0 | 0.0 | 0.00 | 0.00 | 0.00 | 99 | 1017.1 |
| 20260508104308 | 6 | 153 | 0.0 | 0.0 | 0.00 | 0.00 | 0.00 | 99 | 1017.0 |
| 20260508103805 | 6 | 152 | 0.0 | 0.0 | 0.00 | 0.00 | 0.00 | 99 | 1017.1 |
| 20260508103302 | 6 | 148 | 0.0 | 0.0 | 0.00 | 0.00 | 0.00 | 99 | 1016.9 |
| 20260508102800 | 6 | 156 | 0.0 | 0.0 | 0.00 | 0.00 | 0.00 | 99 | 1016.8 |
| 20260508102258 | 6 | 154 | 0.0 | 0.0 | 0.00 | 0.00 | 0.00 | 99 | 1016.8 |
| 20260508101755 | 6 | 154 | 0.0 | 0.0 | 0.00 | 0.00 | 0.00 | 99 | 1016.8 |
| 20260508101252 | 6 | 155 | 0.0 | 0.0 | 0.00 | 0.00 | 0.00 | 99 | 1016.6 |
| 20260508100750 | 6 | 152 | 0.0 | 0.0 | 0.00 | 0.00 | 0.00 | 99 | 1016.6 |
| 20260508100248 | 6 | 129 | 0.0 | 0.0 | 0.00 | 0.00 | 0.00 | 99 | 1016.6 |
| 20260508095743 | 6 | 119 | 0.0 | 0.0 | 0.00 | 0.00 | 0.00 | 99 | 1016.4 |
| 20260508095241 | 6 | 119 | 0.0 | 0.0 | 0.00 | 0.00 | 0.00 | 99 | 1016.3 |
| 20260508094738 | 6 | 124 | 0.0 | 0.0 | 0.00 | 0.00 | 0.00 | 99 | 1016.3 |
| 20260508094235 | 6 | 131 | 0.0 | 0.0 | 0.00 | 0.00 | 0.00 | 99 | 1016.2 |
| 20260508093732 | 7 | 132 | 0.0 | 0.0 | 0.00 | 0.00 | 0.00 | 99 | 1016.3 |
| 20260508093230 | 7 | 119 | 0.0 | 1.6 | 0.00 | 0.00 | 0.00 | 99 | 1015.9 |
| 20260508092726 | 7 | 120 | 0.0 | 1.6 | 0.00 | 0.00 | 0.00 | 99 | 1016.1 |
| 20260508092225 | 7 | 120 | 0.0 | 0.0 | 0.00 | 0.00 | 0.00 | 99 | 1016.0 |
| 20260508091722 | 7 | 131 | 0.0 | 0.0 | 0.00 | 0.00 | 0.00 | 99 | 1016.0 |
| 20260508091219 | 7 | 133 | 0.0 | 0.0 | 0.00 | 0.00 | 0.00 | 99 | 1016.0 |
| 20260508090717 | 6 | 113 | 0.0 | 0.0 | 0.00 | 0.00 | 0.00 | 99 | 1015.7 |
| 20260508090214 | 6 | 115 | 0.0 | 0.0 | 0.00 | 0.00 | 0.00 | 99 | 1015.9 |
| 20260508085710 | 7 | 121 | 0.0 | 0.0 | 0.00 | 0.00 | 0.00 | 99 | 1016.0 |
| 20260508085208 | 7 | 122 | 0.0 | 0.0 | 0.00 | 0.00 | 0.00 | 99 | 1015.9 |
| 20260508084703 | 7 | 134 | 0.0 | 0.0 | 0.00 | 0.00 | 0.00 | 99 | 1015.6 |
| 20260508084201 | 7 | 110 | 0.0 | 0.0 | 0.00 | 0.00 | 0.00 | 99 | 1015.6 |
| 20260508083658 | 6 | 122 | 0.0 | 0.0 | 0.00 | 0.00 | 0.00 | 99 | 1015.8 |
| 20260508083156 | 6 | 129 | 0.0 | 0.0 | 0.00 | 0.00 | 0.00 | 99 | 1015.6 |
| 20260508082650 | 7 | 123 | 0.0 | 0.0 | 0.00 | 0.00 | 0.00 | 99 | 1015.5 |
| 20260508082148 | 7 | 115 | 0.0 | 0.0 | 0.00 | 0.00 | 0.00 | 99 | 1015.4 |
| 20260508081645 | 7 | 121 | 0.0 | 0.0 | 0.00 | 0.00 | 0.00 | 99 | 1015.3 |
| 20260508081141 | 7 | 118 | 0.0 | 0.0 | 0.00 | 0.00 | 0.00 | 99 | 1015.2 |
| 20260508080638 | 7 | 121 | 0.0 | 0.0 | 0.00 | 0.00 | 0.00 | 99 | 1015.4 |
| 20260508080137 | 7 | 118 | 0.0 | 0.0 | 0.00 | 0.00 | 0.00 | 99 | 1015.5 |
| 20260508075628 | 7 | 122 | 0.0 | 0.0 | 0.00 | 0.00 | 0.00 | 99 | 1015.4 |
| 20260508075124 | 7 | 124 | 0.0 | 0.0 | 0.00 | 0.00 | 0.00 | 99 | 1015.4 |
| 20260508074622 | 7 | 134 | 0.0 | 0.0 | 0.00 | 0.00 | 0.00 | 99 | 1015.2 |
| 20260508074119 | 7 | 128 | 0.0 | 0.0 | 0.00 | 0.00 | 0.00 | 99 | 1015.3 |
| 20260508073616 | 7 | 131 | 0.0 | 0.0 | 0.00 | 0.00 | 0.00 | 99 | 1015.1 |
| 20260508073114 | 7 | 125 | 0.0 | 0.0 | 0.00 | 0.00 | 0.00 | 99 | 1015.3 |
| 20260508072609 | 7 | 131 | 0.0 | 0.0 | 0.00 | 0.00 | 0.00 | 99 | 1015.2 |
| 20260508072107 | 7 | 129 | 0.0 | 0.0 | 0.00 | 0.00 | 0.00 | 99 | 1015.1 |
| 20260508071605 | 7 | 129 | 0.0 | 0.0 | 0.00 | 0.00 | 0.00 | 99 | 1015.1 |
| 20260508071103 | 7 | 123 | 0.0 | 0.0 | 0.00 | 0.00 | 0.00 | 99 | 1015.0 |
| 20260508070600 | 7 | 126 | 0.0 | 0.0 | 0.00 | 0.00 | 0.00 | 99 | 1015.0 |
| 20260508070058 | 7 | 125 | 0.0 | 0.0 | 0.00 | 0.00 | 0.00 | 99 | 1014.9 |
| 20260508065555 | 7 | 130 | 0.0 | 0.0 | 0.00 | 0.00 | 0.00 | 99 | 1015.0 |
| 20260508065053 | 7 | 122 | 0.0 | 0.0 | 0.00 | 0.00 | 0.00 | 99 | 1014.9 |
| 20260508064550 | 7 | 130 | 0.0 | 0.0 | 0.00 | 0.00 | 0.00 | 99 | 1015.1 |
| 20260508064048 | 7 | 127 | 0.0 | 0.0 | 0.00 | 0.00 | 0.00 | 99 | 1014.9 |
| 20260508063545 | 7 | 125 | 0.0 | 0.0 | 0.00 | 0.00 | 0.00 | 99 | 1014.8 |
| 20260508063043 | 7 | 120 | 0.0 | 0.0 | 0.00 | 0.00 | 0.00 | 99 | 1014.7 |
| 20260508062540 | 7 | 123 | 0.0 | 0.0 | 0.00 | 0.00 | 0.00 | 99 | 1014.7 |
| 20260508062037 | 7 | 133 | 0.0 | 0.0 | 0.00 | 0.00 | 0.00 | 99 | 1014.7 |
| 20260508061535 | 7 | 132 | 0.0 | 0.0 | 0.00 | 0.00 | 0.00 | 99 | 1014.7 |
| 20260508061031 | 7 | 128 | 0.0 | 0.0 | 0.00 | 0.00 | 0.00 | 99 | 1014.4 |
| 20260508060528 | 7 | 141 | 0.0 | 0.0 | 0.00 | 0.00 | 0.00 | 99 | 1014.6 |
| 20260508060026 | 7 | 132 | 0.0 | 0.0 | 0.00 | 0.00 | 0.00 | 99 | 1014.5 |
| 20260508055521 | 7 | 134 | 0.0 | 0.0 | 0.00 | 0.00 | 0.00 | 99 | 1014.4 |
| 20260508055018 | 7 | 134 | 0.0 | 0.0 | 0.00 | 0.00 | 0.00 | 99 | 1014.4 |
| 20260508054515 | 7 | 133 | 0.0 | 0.0 | 0.00 | 0.00 | 0.00 | 99 | 1014.4 |
| 20260508054012 | 7 | 132 | 0.0 | 0.0 | 0.00 | 0.00 | 0.00 | 99 | 1014.4 |
| 20260508053509 | 7 | 128 | 0.0 | 0.0 | 0.00 | 0.00 | 0.00 | 99 | 1014.4 |
| 20260508053007 | 7 | 125 | 0.0 | 0.0 | 0.00 | 0.00 | 0.00 | 99 | 1014.4 |
| 20260508052504 | 7 | 123 | 0.0 | 0.0 | 0.00 | 0.00 | 0.00 | 99 | 1014.4 |
| 20260508052000 | 7 | 130 | 0.0 | 0.0 | 0.00 | 0.00 | 0.00 | 99 | 1014.5 |
| 20260508051456 | 7 | 131 | 0.0 | 0.0 | 0.00 | 0.00 | 0.00 | 99 | 1014.3 |
| 20260508050952 | 7 | 133 | 0.0 | 0.0 | 0.00 | 0.00 | 0.00 | 99 | 1014.3 |
| 20260508050449 | 7 | 131 | 0.0 | 0.0 | 0.00 | 0.00 | 0.00 | 99 | 1014.3 |
| 20260508045945 | 7 | 129 | 0.0 | 0.0 | 0.00 | 0.00 | 0.00 | 99 | 1014.3 |
| 20260508045443 | 7 | 126 | 0.0 | 0.0 | 0.00 | 0.00 | 0.00 | 99 | 1014.3 |
| 20260508044940 | 7 | 124 | 0.0 | 0.0 | 0.00 | 0.00 | 0.00 | 99 | 1014.1 |
| 20260508044437 | 7 | 129 | 0.0 | 0.0 | 0.00 | 0.00 | 0.00 | 99 | 1014.1 |
| 20260508043932 | 7 | 130 | 0.0 | 0.0 | 0.00 | 0.00 | 0.00 | 99 | 1014.2 |
| 20260508043430 | 7 | 131 | 0.0 | 0.0 | 0.00 | 0.00 | 0.00 | 99 | 1014.2 |
| 20260508042926 | 7 | 133 | 0.0 | 0.0 | 0.00 | 0.00 | 0.00 | 99 | 1014.0 |
| 20260508042424 | 7 | 133 | 0.0 | 0.0 | 0.00 | 0.00 | 0.00 | 99 | 1014.2 |
| 20260508041921 | 7 | 130 | 0.0 | 0.0 | 0.00 | 0.00 | 0.00 | 99 | 1014.2 |
| 20260508041417 | 7 | 129 | 0.0 | 0.0 | 0.00 | 0.00 | 0.00 | 99 | 1014.2 |
| 20260508040914 | 7 | 131 | 0.0 | 0.0 | 0.00 | 0.00 | 0.00 | 99 | 1014.1 |
| 20260508040411 | 8 | 133 | 0.0 | 0.0 | 0.00 | 0.00 | 0.00 | 99 | 1013.9 |
| 20260508035909 | 8 | 133 | 0.0 | 0.0 | 0.00 | 0.36 | 0.36 | 99 | 1013.9 |
| 20260508035406 | 8 | 131 | 0.0 | 0.0 | 0.00 | 0.36 | 0.36 | 99 | 1013.8 |
| 20260508034902 | 8 | 135 | 0.0 | 0.0 | 0.00 | 0.36 | 0.36 | 99 | 1013.9 |
| 20260508034359 | 8 | 136 | 0.0 | 0.0 | 0.00 | 0.36 | 0.36 | 99 | 1013.9 |
| 20260508033851 | 8 | 136 | 0.0 | 0.0 | 0.00 | 0.36 | 0.36 | 99 | 1013.9 |
| 20260508033349 | 8 | 132 | 0.0 | 0.0 | 0.00 | 0.36 | 0.36 | 99 | 1013.8 |
| 20260508032846 | 8 | 137 | 0.0 | 0.0 | 0.00 | 0.36 | 0.36 | 99 | 1013.7 |
| 20260508032343 | 8 | 136 | 0.0 | 0.0 | 0.00 | 0.36 | 0.36 | 99 | 1013.8 |
| 20260508031840 | 8 | 136 | 0.0 | 0.0 | 0.00 | 0.36 | 0.36 | 99 | 1014.0 |
| 20260508031337 | 8 | 135 | 0.0 | 0.0 | 0.00 | 0.36 | 0.36 | 99 | 1013.9 |
| 20260508030833 | 8 | 134 | 0.0 | 0.0 | 0.00 | 0.36 | 0.36 | 99 | 1013.9 |
| 20260508030330 | 8 | 135 | 0.0 | 0.0 | 0.00 | 0.36 | 0.36 | 99 | 1013.8 |
| 20260508025827 | 8 | 135 | 0.0 | 0.0 | 0.00 | 0.36 | 0.36 | 99 | 1013.7 |
| 20260508025324 | 8 | 135 | 0.0 | 0.0 | 0.00 | 0.36 | 0.36 | 99 | 1013.7 |
| 20260508024821 | 8 | 111 | 0.0 | 0.0 | 0.00 | 0.36 | 0.36 | 99 | 1013.5 |
| 20260508024317 | 8 | 140 | 0.0 | 0.0 | 0.00 | 0.36 | 0.36 | 99 | 1013.6 |
| 20260508023814 | 8 | 136 | 0.0 | 0.0 | 0.00 | 0.36 | 0.36 | 99 | 1013.4 |
| 20260508023311 | 8 | 141 | 0.0 | 0.0 | 0.00 | 0.36 | 0.36 | 99 | 1013.6 |
| 20260508022807 | 7 | 141 | 0.0 | 0.0 | 0.00 | 0.36 | 0.36 | 99 | 1013.6 |
| 20260508022306 | 8 | 141 | 0.0 | 0.0 | 0.00 | 0.36 | 0.36 | 99 | 1013.5 |
| 20260508021801 | 8 | 141 | 0.0 | 0.0 | 0.00 | 0.36 | 0.36 | 99 | 1013.7 |
| 20260508021256 | 8 | 141 | 0.0 | 0.0 | 0.00 | 0.36 | 0.36 | 99 | 1013.6 |
| 20260508020753 | 8 | 144 | 0.0 | 0.0 | 0.00 | 0.36 | 0.36 | 99 | 1013.5 |
| 20260508020251 | 8 | 139 | 0.0 | 0.0 | 0.00 | 0.36 | 0.36 | 99 | 1013.3 |
| 20260508015747 | 8 | 138 | 0.0 | 0.0 | 0.00 | 0.36 | 0.36 | 98 | 1013.5 |
| 20260508015245 | 8 | 136 | 0.0 | 0.0 | 0.00 | 0.36 | 0.36 | 98 | 1013.0 |
| 20260508014741 | 8 | 141 | 0.0 | 0.0 | 0.00 | 0.36 | 0.36 | 98 | 1013.3 |
| 20260508014238 | 8 | 141 | 0.0 | 0.0 | 0.00 | 0.36 | 0.36 | 98 | 1013.2 |
| 20260508013734 | 8 | 141 | 0.0 | 0.0 | 0.00 | 0.36 | 0.36 | 98 | 1013.3 |
| 20260508013231 | 8 | 139 | 0.0 | 0.0 | 0.00 | 0.36 | 0.36 | 98 | 1013.4 |
| 20260508012728 | 8 | 136 | 0.0 | 0.0 | 0.00 | 0.36 | 0.36 | 98 | 1013.4 |
| 20260508012225 | 8 | 135 | 0.0 | 0.0 | 0.00 | 0.36 | 0.36 | 97 | 1013.3 |
| 20260508011723 | 8 | 143 | 0.0 | 0.0 | 0.00 | 0.36 | 0.36 | 97 | 1013.3 |
| 20260508011220 | 8 | 144 | 0.0 | 0.0 | 0.00 | 0.36 | 0.36 | 97 | 1013.3 |
| 20260508010717 | 9 | 145 | 0.0 | 0.0 | 0.00 | 0.36 | 0.36 | 97 | 1013.3 |
| 20260508010215 | 9 | 145 | 0.0 | 0.0 | 0.00 | 0.36 | 0.36 | 97 | 1013.3 |
| 20260508005712 | 9 | 145 | 0.0 | 0.0 | 0.00 | 0.36 | 0.36 | 97 | 1013.3 |
| 20260508005209 | 10 | 151 | 0.0 | 0.0 | 0.00 | 0.36 | 0.36 | 97 | 1013.3 |
| 20260508004704 | 10 | 136 | 0.0 | 0.0 | 0.00 | 0.36 | 0.36 | 96 | 1013.1 |
| 20260508004200 | 10 | 136 | 0.0 | 0.0 | 0.00 | 0.36 | 0.36 | 96 | 1012.9 |
| 20260508003657 | 10 | 144 | 0.0 | 0.0 | 0.00 | 0.36 | 0.36 | 96 | 1012.8 |
| 20260508003155 | 10 | 145 | 0.0 | 0.0 | 0.00 | 0.36 | 0.36 | 96 | 1013.0 |
| 20260508002651 | 10 | 145 | 0.0 | 0.0 | 0.00 | 0.36 | 0.36 | 96 | 1013.1 |
| 20260508002149 | 10 | 149 | 0.0 | 0.0 | 0.00 | 0.36 | 0.36 | 95 | 1013.0 |
| 20260508001644 | 10 | 144 | 0.0 | 0.0 | 0.00 | 0.36 | 0.36 | 95 | 1012.8 |
| 20260508001140 | 10 | 141 | 0.0 | 0.0 | 0.00 | 0.36 | 0.36 | 95 | 1012.5 |
| 20260508000636 | 10 | 151 | 0.0 | 0.0 | 0.00 | 0.36 | 0.36 | 94 | 1012.5 |
| 20260508000134 | 10 | 153 | 0.0 | 0.0 | 0.00 | 0.36 | 0.36 | 94 | 1012.4 |
| 20260507235630 | 10 | 157 | 0.0 | 0.0 | 0.00 | 0.36 | 0.36 | 93 | 1012.4 |
| 20260507235128 | 10 | 157 | 0.0 | 0.0 | 0.00 | 0.36 | 0.36 | 93 | 1012.5 |
| 20260507234624 | 10 | 158 | 0.0 | 0.0 | 0.00 | 0.36 | 0.36 | 93 | 1012.2 |
| 20260507234121 | 10 | 152 | 0.0 | 0.0 | 0.00 | 0.36 | 0.36 | 92 | 1012.1 |
| 20260507233618 | 10 | 152 | 0.0 | 0.0 | 0.00 | 0.36 | 0.36 | 92 | 1012.1 |
| 20260507233116 | 10 | 155 | 0.0 | 0.0 | 0.00 | 0.36 | 0.36 | 90 | 1012.0 |
| 20260507232613 | 10 | 155 | 0.0 | 0.0 | 0.00 | 0.36 | 0.36 | 90 | 1012.1 |
| 20260507232110 | 10 | 155 | 0.0 | 0.0 | 0.00 | 0.36 | 0.36 | 90 | 1012.0 |
| 20260507231606 | 10 | 153 | 0.0 | 0.0 | 0.00 | 0.36 | 0.36 | 89 | 1011.9 |
| 20260507231103 | 10 | 153 | 0.0 | 0.0 | 0.00 | 0.36 | 0.36 | 89 | 1012.0 |
| 20260507230600 | 10 | 153 | 0.0 | 0.0 | 0.00 | 0.36 | 0.36 | 89 | 1012.1 |
| 20260507230056 | 10 | 152 | 0.0 | 0.0 | 0.00 | 0.36 | 0.36 | 91 | 1011.9 |
| 20260507225551 | 10 | 154 | 0.0 | 0.0 | 0.00 | 0.36 | 0.36 | 91 | 1011.8 |
| 20260507225048 | 10 | 161 | 0.0 | 0.0 | 0.00 | 0.36 | 0.36 | 90 | 1012.0 |
| 20260507224544 | 10 | 164 | 0.0 | 0.0 | 0.00 | 0.36 | 0.36 | 89 | 1011.9 |
| 20260507224041 | 11 | 155 | 0.0 | 0.0 | 0.00 | 0.36 | 0.36 | 88 | 1011.8 |
| 20260507223537 | 11 | 145 | 0.0 | 3.2 | 0.00 | 0.36 | 0.36 | 87 | 1011.8 |
| 20260507223034 | 11 | 140 | 0.0 | 0.0 | 0.00 | 0.36 | 0.36 | 91 | 1011.9 |
| 20260507222531 | 11 | 151 | 0.0 | 0.0 | 0.00 | 0.36 | 0.36 | 91 | 1012.0 |
| 20260507222027 | 11 | 153 | 0.0 | 0.0 | 0.00 | 0.36 | 0.36 | 92 | 1012.1 |
| 20260507221524 | 11 | 147 | 0.0 | 0.0 | 0.00 | 0.36 | 0.36 | 93 | 1011.7 |
| 20260507221021 | 11 | 151 | 0.0 | 0.0 | 0.00 | 0.36 | 0.36 | 93 | 1011.7 |
| 20260507220518 | 11 | 103 | 0.0 | 0.0 | 0.00 | 0.36 | 0.36 | 92 | 1011.7 |
| 20260507220015 | 11 | 153 | 0.0 | 0.0 | 0.00 | 0.36 | 0.36 | 93 | 1012.1 |
| 20260507215511 | 11 | 149 | 0.0 | 0.0 | 0.00 | 0.36 | 0.36 | 94 | 1011.6 |
| 20260507215009 | 11 | 153 | 0.0 | 0.0 | 0.00 | 0.36 | 0.36 | 93 | 1012.0 |
| 20260507214506 | 11 | 151 | 0.0 | 0.0 | 0.00 | 0.36 | 0.36 | 94 | 1011.8 |
| 20260507214002 | 11 | 137 | 0.0 | 0.0 | 0.00 | 0.36 | 0.36 | 94 | 1011.7 |
| 20260507213458 | 11 | 132 | 0.0 | 1.6 | 0.00 | 0.36 | 0.36 | 94 | 1011.6 |
| 20260507212955 | 11 | 157 | 0.0 | 0.0 | 0.00 | 0.36 | 0.36 | 94 | 1012.0 |
| 20260507212451 | 11 | 142 | 0.0 | 1.6 | 0.18 | 0.36 | 0.36 | 95 | 1011.5 |
| 20260507211948 | 10 | 157 | 0.0 | 0.0 | 0.18 | 0.36 | 0.36 | 94 | 1011.6 |
| 20260507211445 | 11 | 135 | 0.0 | 0.0 | 0.00 | 0.33 | 0.33 | 94 | 1011.7 |
| 20260507210941 | 10 | 145 | 0.0 | 0.0 | 0.00 | 0.33 | 0.33 | 94 | 1011.6 |
| 20260507210438 | 10 | 152 | 0.0 | 0.0 | 0.13 | 0.33 | 0.33 | 94 | 1011.7 |
| 20260507205934 | 10 | 150 | 1.6 | 1.6 | 0.30 | 0.33 | 0.33 | 93 | 1011.7 |
| 20260507205432 | 10 | 152 | 0.0 | 0.0 | 0.18 | 0.30 | 0.30 | 93 | 1012.0 |
| 20260507204928 | 10 | 160 | 0.0 | 0.0 | 0.30 | 0.28 | 0.28 | 92 | 1012.6 |
| 20260507204419 | 11 | 154 | 0.0 | 0.0 | 0.43 | 0.28 | 0.28 | 92 | 1012.3 |
| 20260507203917 | 11 | 155 | 0.0 | 1.6 | 0.13 | 0.23 | 0.23 | 91 | 1011.9 |
| 20260507203415 | 11 | 160 | 0.0 | 0.0 | 0.00 | 0.20 | 0.20 | 91 | 1012.2 |
| 20260507202910 | 11 | 141 | 0.0 | 1.6 | 0.18 | 0.20 | 0.20 | 90 | 1012.1 |
| 20260507202401 | 11 | 141 | 1.6 | 1.6 | 0.18 | 0.20 | 0.20 | 89 | 1011.9 |
| 20260507201857 | 11 | 121 | 1.6 | 4.8 | 0.13 | 0.18 | 0.18 | 88 | 1012.0 |
| 20260507201352 | 12 | 133 | 0.0 | 1.6 | 0.13 | 0.18 | 0.18 | 87 | 1012.0 |
| 20260507200849 | 12 | 166 | 0.0 | 1.6 | 0.00 | 0.15 | 0.15 | 84 | 1012.2 |
| 20260507200345 | 12 | 154 | 0.0 | 0.0 | 0.00 | 0.15 | 0.15 | 81 | 1012.2 |
| 20260507195841 | 12 | 152 | 0.0 | 1.6 | 0.00 | 0.15 | 0.15 | 77 | 1012.3 |
| 20260507195339 | 12 | 70 | 0.0 | 0.0 | 0.00 | 0.15 | 0.15 | 77 | 1011.9 |
| 20260507194836 | 12 | 154 | 0.0 | 1.6 | 0.00 | 0.15 | 0.15 | 77 | 1011.8 |
| 20260507194332 | 12 | 150 | 0.0 | 1.6 | 0.00 | 0.15 | 0.15 | 79 | 1012.0 |
| 20260507193828 | 12 | 76 | 1.6 | 1.6 | 0.00 | 0.15 | 0.15 | 76 | 1012.2 |
| 20260507193326 | 13 | 0 | 3.2 | 4.8 | 0.00 | 0.15 | 0.15 | 76 | 1012.1 |
| 20260507192820 | 13 | 132 | 0.0 | 3.2 | 0.00 | 0.15 | 0.15 | 76 | 1012.1 |
| 20260507192313 | 13 | 151 | 0.0 | 1.6 | 0.00 | 0.15 | 0.15 | 76 | 1012.4 |
| 20260507191809 | 13 | 195 | 1.6 | 1.6 | 0.00 | 0.15 | 0.15 | 75 | 1012.5 |
| 20260507191305 | 13 | 60 | 1.6 | 3.2 | 0.00 | 0.15 | 0.15 | 74 | 1012.5 |
| 20260507190802 | 13 | 151 | 0.0 | 0.0 | 0.00 | 0.15 | 0.15 | 74 | 1012.3 |
| 20260507190301 | 13 | 158 | 0.0 | 0.0 | 0.00 | 0.15 | 0.15 | 73 | 1012.3 |
| 20260507185800 | 13 | 142 | 0.0 | 1.6 | 0.00 | 0.15 | 0.15 | 73 | 1012.4 |
| 20260507185255 | 13 | 121 | 0.0 | 0.0 | 0.00 | 0.15 | 0.15 | 75 | 1012.4 |
| 20260507184753 | 13 | 339 | 3.2 | 4.8 | 0.00 | 0.15 | 0.15 | 74 | 1012.3 |
| 20260507184250 | 13 | 111 | 0.0 | 0.0 | 0.00 | 0.15 | 0.15 | 76 | 1012.2 |
| 20260507183747 | 13 | 142 | 1.6 | 4.8 | 0.00 | 0.15 | 0.15 | 75 | 1012.3 |
| 20260507183243 | 13 | 136 | 1.6 | 1.6 | 0.00 | 0.15 | 0.15 | 74 | 1012.5 |
| 20260507182741 | 13 | 144 | 1.6 | 3.2 | 0.00 | 0.15 | 0.15 | 72 | 1012.6 |
| 20260507182236 | 13 | 135 | 1.6 | 3.2 | 0.00 | 0.15 | 0.15 | 71 | 1012.3 |
| 20260507181734 | 14 | 143 | 0.0 | 6.4 | 0.00 | 0.15 | 0.15 | 72 | 1012.5 |
| 20260507181230 | 14 | 119 | 0.0 | 3.2 | 0.00 | 0.15 | 0.15 | 72 | 1012.4 |
| 20260507180727 | 13 | 162 | 1.6 | 3.2 | 0.00 | 0.15 | 0.15 | 72 | 1012.3 |
| 20260507180223 | 14 | 101 | 0.0 | 3.2 | 0.00 | 0.15 | 0.15 | 71 | 1012.3 |
| 20260507175719 | 14 | 147 | 0.0 | 9.7 | 0.00 | 0.15 | 0.15 | 72 | 1012.4 |
| 20260507175216 | 13 | 35 | 0.0 | 3.2 | 0.00 | 0.15 | 0.15 | 70 | 1012.5 |
| 20260507174714 | 13 | 250 | 3.2 | 9.7 | 0.00 | 0.15 | 0.15 | 72 | 1012.6 |
| 20260507174211 | 13 | 145 | 0.0 | 4.8 | 0.00 | 0.15 | 0.15 | 72 | 1012.7 |
| 20260507173708 | 13 | 84 | 3.2 | 4.8 | 0.00 | 0.15 | 0.15 | 74 | 1012.7 |
| 20260507173205 | 13 | 39 | 3.2 | 6.4 | 0.00 | 0.15 | 0.15 | 73 | 1013.0 |
| 20260507172701 | 13 | 45 | 1.6 | 4.8 | 0.00 | 0.15 | 0.15 | 73 | 1012.8 |
| 20260507172158 | 13 | 137 | 1.6 | 1.6 | 0.00 | 0.15 | 0.15 | 73 | 1012.9 |
| 20260507171653 | 13 | 143 | 0.0 | 3.2 | 0.00 | 0.15 | 0.15 | 74 | 1012.9 |
| 20260507171150 | 13 | 130 | 1.6 | 6.4 | 0.00 | 0.15 | 0.15 | 73 | 1013.0 |
| 20260507170647 | 13 | 133 | 0.0 | 3.2 | 0.00 | 0.15 | 0.15 | 74 | 1013.3 |
| 20260507170145 | 13 | 141 | 0.0 | 1.6 | 0.00 | 0.15 | 0.15 | 76 | 1013.3 |
| 20260507165640 | 13 | 124 | 0.0 | 0.0 | 0.00 | 0.15 | 0.15 | 75 | 1013.3 |
| 20260507165137 | 13 | 141 | 0.0 | 1.6 | 0.00 | 0.15 | 0.15 | 75 | 1013.3 |
| 20260507164632 | 13 | 149 | 0.0 | 3.2 | 0.00 | 0.15 | 0.15 | 76 | 1013.2 |
| 20260507164130 | 13 | 145 | 0.0 | 4.8 | 0.00 | 0.15 | 0.15 | 76 | 1013.4 |
| 20260507163627 | 12 | 346 | 1.6 | 12.9 | 0.00 | 0.15 | 0.15 | 74 | 1013.3 |
| 20260507163124 | 13 | 141 | 0.0 | 4.8 | 0.00 | 0.15 | 0.15 | 77 | 1013.7 |
| 20260507162619 | 13 | 139 | 3.2 | 3.2 | 0.00 | 0.15 | 0.15 | 79 | 1013.5 |
| 20260507162111 | 13 | 9 | 6.4 | 9.7 | 0.00 | 0.15 | 0.15 | 78 | 1013.4 |
| 20260507161608 | 13 | 154 | 1.6 | 3.2 | 0.00 | 0.15 | 0.15 | 79 | 1013.4 |
| 20260507161104 | 13 | 106 | 0.0 | 1.6 | 0.00 | 0.15 | 0.15 | 79 | 1013.5 |
| 20260507160600 | 13 | 165 | 3.2 | 11.3 | 0.00 | 0.15 | 0.15 | 78 | 1013.6 |
| 20260507160057 | 12 | 119 | 3.2 | 3.2 | 0.00 | 0.15 | 0.15 | 79 | 1013.7 |
| 20260507155552 | 12 | 23 | 4.8 | 6.4 | 0.00 | 0.15 | 0.15 | 80 | 1013.5 |
| 20260507155050 | 12 | 357 | 3.2 | 6.4 | 0.00 | 0.15 | 0.15 | 80 | 1013.6 |
| 20260507154546 | 12 | 107 | 1.6 | 6.4 | 0.00 | 0.15 | 0.15 | 80 | 1013.6 |
| 20260507154043 | 12 | 281 | 6.4 | 9.7 | 0.00 | 0.15 | 0.15 | 79 | 1013.6 |
| 20260507153540 | 12 | 163 | 1.6 | 12.9 | 0.00 | 0.15 | 0.15 | 79 | 1013.3 |
| 20260507153036 | 12 | 332 | 3.2 | 6.4 | 0.00 | 0.15 | 0.15 | 79 | 1013.5 |
| 20260507152532 | 13 | 127 | 3.2 | 4.8 | 0.00 | 0.15 | 0.15 | 78 | 1013.6 |
| 20260507152029 | 13 | 354 | 1.6 | 17.7 | 0.00 | 0.15 | 0.15 | 77 | 1013.5 |
| 20260507151525 | 13 | 58 | 0.0 | 14.5 | 0.00 | 0.15 | 0.15 | 76 | 1013.8 |
| 20260507151022 | 13 | 111 | 1.6 | 11.3 | 0.00 | 0.15 | 0.15 | 77 | 1013.8 |
| 20260507150519 | 13 | 49 | 3.2 | 4.8 | 0.00 | 0.15 | 0.15 | 79 | 1013.9 |
| 20260507150016 | 13 | 145 | 1.6 | 4.8 | 0.00 | 0.15 | 0.15 | 79 | 1013.4 |
| 20260507145510 | 13 | 356 | 3.2 | 4.8 | 0.00 | 0.15 | 0.15 | 80 | 1013.2 |
| 20260507145009 | 13 | 69 | 3.2 | 9.7 | 0.00 | 0.15 | 0.15 | 79 | 1013.4 |
| 20260507144505 | 13 | 21 | 4.8 | 6.4 | 0.00 | 0.15 | 0.15 | 79 | 1013.2 |
| 20260507144003 | 13 | 116 | 3.2 | 4.8 | 0.00 | 0.15 | 0.15 | 78 | 1013.4 |
| 20260507143500 | 13 | 327 | 1.6 | 4.8 | 0.00 | 0.15 | 0.15 | 79 | 1013.5 |
| 20260507142956 | 13 | 133 | 0.0 | 3.2 | 0.00 | 0.15 | 0.15 | 80 | 1013.3 |
| 20260507142452 | 13 | 20 | 1.6 | 4.8 | 0.00 | 0.15 | 0.15 | 78 | 1013.5 |
| 20260507141949 | 13 | 138 | 0.0 | 0.0 | 0.00 | 0.15 | 0.15 | 79 | 1013.6 |
| 20260507141445 | 13 | 149 | 1.6 | 3.2 | 0.00 | 0.15 | 0.15 | 79 | 1013.6 |
| 20260507140942 | 13 | 81 | 3.2 | 12.9 | 0.00 | 0.15 | 0.15 | 79 | 1013.6 |
| 20260507140439 | 13 | 170 | 3.2 | 6.4 | 0.00 | 0.15 | 0.15 | 79 | 1013.8 |
| 20260507135936 | 13 | 148 | 1.6 | 6.4 | 0.00 | 0.15 | 0.15 | 79 | 1013.8 |
| 20260507135433 | 13 | 15 | 1.6 | 3.2 | 0.00 | 0.15 | 0.15 | 79 | 1013.6 |
| 20260507134930 | 14 | 19 | 3.2 | 4.8 | 0.00 | 0.15 | 0.15 | 78 | 1013.8 |
| 20260507134427 | 13 | 172 | 1.6 | 6.4 | 0.00 | 0.15 | 0.15 | 79 | 1013.4 |
| 20260507133923 | 13 | 31 | 6.4 | 9.7 | 0.00 | 0.15 | 0.15 | 78 | 1013.4 |
| 20260507133418 | 13 | 29 | 3.2 | 4.8 | 0.00 | 0.15 | 0.15 | 78 | 1013.4 |